CW3161 Weather Reports


Display with metric or nautical units.
time (UTC)temp
F
wind
direction
speed
MPH
gust
MPH
rain 1hr
in
rain 24hr
in
rain mn
in
humidity
%
barometer
mb
20180723040035 80 265 2.0 6.0 0.00 0.00 0.00 37 1014.0
20180723034536 81 261 3.0 9.0 0.00 0.00 0.00 37 1013.8
20180723033034 82 257 4.0 9.0 0.00 0.00 0.00 37 1013.6
20180723031534 83 261 3.0 7.0 0.00 0.00 0.00 37 1013.3
20180723030033 85 259 2.0 6.0 0.00 0.00 0.00 35 1013.5
20180723024529 86 252 2.0 6.0 0.00 0.00 0.00 33 1013.5
20180723023031 87 265 3.0 11.0 0.00 0.00 0.00 31 1013.4
20180723021530 88 245 4.0 11.0 0.00 0.00 0.00 29 1013.1
20180723020031 89 267 6.0 11.0 0.00 0.00 0.00 28 1012.9
20180723014529 89 239 5.0 11.0 0.00 0.00 0.00 27 1013.0
20180723013028 90 263 5.0 10.0 0.00 0.00 0.00 28 1012.9
20180723011528 90 247 6.0 12.0 0.00 0.00 0.00 27 1012.7
20180723010027 91 257 5.0 11.0 0.00 0.00 0.00 27 1012.7
20180723004528 91 253 7.0 13.0 0.00 0.00 0.00 26 1012.6
20180723003025 92 252 6.0 12.0 0.00 0.00 0.00 26 1012.6
20180723001524 92 269 3.0 11.0 0.00 0.00 0.00 25 1012.9
20180723000024 93 249 2.0 10.0 0.00 0.00 0.00 24 1013.0
20180722234524 92 260 2.0 10.0 0.00 0.00 0.00 25 1013.2
20180722233022 92 238 8.0 11.0 0.00 0.00 0.00 23 1013.1
20180722231523 92 239 0.0 10.0 0.00 0.00 0.00 23 1013.4
20180722230019 92 263 5.0 11.0 0.00 0.00 0.00 23 1013.4
20180722224519 92 259 5.0 11.0 0.00 0.00 0.00 23 1013.3
20180722223018 92 186 0.0 10.0 0.00 0.00 0.00 23 1013.1
20180722221517 92 198 2.0 11.0 0.00 0.00 0.00 23 1013.1
20180722220017 92 258 6.0 11.0 0.00 0.00 0.00 22 1013.3
20180722214517 92 219 2.0 9.0 0.00 0.00 0.00 22 1013.6
20180722213017 92 252 2.0 8.0 0.00 0.00 0.00 22 1013.8
20180722211514 92 263 5.0 11.0 0.00 0.00 0.00 22 1014.0
20180722210013 92 269 7.0 14.0 0.00 0.00 0.00 23 1014.1
20180722204510 91 243 5.0 11.0 0.00 0.00 0.00 25 1014.2
20180722203011 91 184 3.0 8.0 0.00 0.00 0.00 26 1014.1
20180722201507 89 238 5.0 11.0 0.00 0.00 0.00 27 1014.3
20180722200005 90 265 4.0 10.0 0.00 0.00 0.00 28 1014.3
20180722194504 89 235 2.0 11.0 0.00 0.00 0.00 27 1014.3
20180722193001 89 263 4.0 10.0 0.00 0.00 0.00 28 1014.5
20180722191503 88 216 4.0 10.0 0.00 0.00 0.00 29 1014.5
20180722185959 88 216 1.0 7.0 0.00 0.00 0.00 30 1014.7
20180722184500 87 225 4.0 8.0 0.00 0.00 0.00 32 1014.6
20180722182957 87 232 3.0 7.0 0.00 0.00 0.00 32 1014.7
20180722181455 88 234 3.0 7.0 0.00 0.00 0.00 32 1014.9
20180722175950 86 221 0.0 8.0 0.00 0.00 0.00 34 1014.8
20180722174449 85 232 2.0 9.0 0.00 0.00 0.00 35 1014.5
20180722172946 85 231 1.0 6.0 0.00 0.00 0.00 35 1014.6
20180722171443 85 200 0.0 4.0 0.00 0.00 0.00 37 1014.6
20180722165940 84 205 0.0 3.0 0.00 0.00 0.00 38 1014.7
20180722164441 84 205 0.0 3.0 0.00 0.00 0.00 38 1014.6
20180722162935 82 205 0.0 0.0 0.00 0.00 0.00 38 1014.8
20180722161433 81 205 0.0 0.0 0.00 0.00 0.00 40 1014.7
20180722155929 80 205 0.0 1.0 0.00 0.00 0.00 43 1014.7
20180722154426 78 206 0.0 1.0 0.00 0.00 0.00 46 1014.5
20180722152922 77 205 0.0 2.0 0.00 0.00 0.00 47 1014.5
20180722151419 76 249 0.0 1.0 0.00 0.00 0.00 49 1014.4
20180722145916 75 250 0.0 3.0 0.00 0.00 0.00 50 1014.2
20180722144411 73 249 0.0 0.0 0.00 0.00 0.00 52 1014.2
20180722142909 72 249 0.0 0.0 0.00 0.00 0.00 53 1014.1
20180722141407 72 249 0.0 0.0 0.00 0.00 0.00 54 1013.8
20180722135902 71 249 0.0 0.0 0.00 0.00 0.00 54 1013.7
20180722134401 71 249 0.0 0.0 0.00 0.00 0.00 54 1013.7
20180722132903 70 249 0.0 0.0 0.00 0.00 0.00 55 1013.5
20180722131356 70 249 0.0 0.0 0.00 0.00 0.00 56 1013.3
20180722125855 70 249 0.0 0.0 0.00 0.00 0.00 56 1013.2
20180722124354 70 249 0.0 0.0 0.00 0.00 0.00 56 1013.1
20180722122853 70 249 0.0 1.0 0.00 0.00 0.00 55 1013.0
20180722121352 70 249 0.0 0.0 0.00 0.00 0.00 55 1013.0
20180722115851 70 249 0.0 0.0 0.00 0.00 0.00 56 1013.0
20180722114350 70 249 0.0 0.0 0.00 0.00 0.00 57 1013.0
20180722112852 70 249 0.0 0.0 0.00 0.00 0.00 56 1013.0
20180722111349 70 249 0.0 0.0 0.00 0.00 0.00 56 1012.9
20180722105852 70 249 0.0 0.0 0.00 0.00 0.00 56 1012.9
20180722104350 70 249 0.0 0.0 0.00 0.00 0.00 55 1012.8
20180722102844 72 249 0.0 0.0 0.00 0.00 0.00 53 1013.0
20180722101345 72 249 0.0 0.0 0.00 0.00 0.00 52 1012.9
20180722095841 72 249 0.0 0.0 0.00 0.00 0.00 52 1012.8
20180722094344 72 249 0.0 0.0 0.00 0.00 0.00 52 1012.8
20180722092843 72 249 0.0 0.0 0.00 0.00 0.00 53 1012.8
20180722091343 72 248 0.0 0.0 0.00 0.00 0.00 53 1012.8
20180722085845 71 248 0.0 0.0 0.00 0.00 0.00 53 1012.7
20180722084337 72 248 0.0 0.0 0.00 0.00 0.00 52 1012.7
20180722082836 73 248 0.0 0.0 0.00 0.00 0.00 51 1012.8
20180722081336 73 248 0.0 0.0 0.00 0.00 0.00 50 1012.7
20180722075833 73 248 0.0 0.0 0.00 0.00 0.00 50 1012.7
20180722074333 73 248 0.0 0.0 0.00 0.00 0.00 50 1012.8
20180722072835 73 248 0.0 0.0 0.00 0.00 0.00 49 1012.8
20180722071330 73 248 0.0 0.0 0.00 0.00 0.00 49 1012.6
20180722065831 73 248 0.0 0.0 0.00 0.00 0.00 48 1012.6
20180722064327 74 248 0.0 0.0 0.00 0.00 0.00 48 1012.6
20180722062829 74 248 0.0 0.0 0.00 0.00 0.00 47 1012.8
20180722061327 74 248 0.0 0.0 0.00 0.00 0.00 47 1012.7
20180722055823 75 248 0.0 0.0 0.00 0.00 0.00 46 1012.5
20180722054324 75 248 0.0 0.0 0.00 0.00 0.00 46 1012.6
20180722052823 75 248 0.0 0.0 0.00 0.00 0.00 45 1012.5
20180722051324 76 248 0.0 0.0 0.00 0.00 0.00 44 1012.5
20180722045823 77 248 0.0 0.0 0.00 0.00 0.00 43 1012.5
20180722044320 77 248 0.0 0.0 0.00 0.00 0.00 42 1012.4
20180722042819 78 248 0.0 0.0 0.00 0.00 0.00 41 1012.3
20180722041317 79 248 0.0 5.0 0.00 0.00 0.00 39 1012.1